Orbital Elements at Epoch 2459000.5 (2020-May-31.0) TDB
Reference: JPL 24 (heliocentric ecliptic J2000)
Element | Value | Uncertainty (1-sigma) | Units |
e | .1462148773876225 | 3.292e-08 | |
a | 2.256420554096197 | 7.0531e-09 | au |
q | 1.926498299444111 | 7.7393e-08 | au |
i | 6.642990990408792 | 3.4495e-06 | deg |
node | 278.57138860 | 2.8549e-05 | deg |
peri | 94.9558053015261 | 3.1331e-05 | deg |
M | 291.826684028119 | 1.2247e-05 | deg |
tp | 2459234.944697987315 (2021-Jan-20.44469799) | 4.232e-05 | TDB |
period | 1238.022385624388 3.39 | 5.8047e-06 1.589e-08 | d yr |
n | .2907863413297139 | 1.3634e-09 | deg/d |
Q | 2.586342808748284 | 8.0844e-09 | au |
|
| | Orbit Determination Parameters
Additional Information
|